This demonstration page uses our WeatherBlox Daily Observations layout. Learn more.

Left ArrowRight Arrow

41.55636, -103.73856

Hourly Observations for November 13, 2019

Temp ( °F °C ) Dew Point ( °F °C ) Humidity (%) Winds ( mph kmh ) Pressure ( in mb ) Visibility ( mi km ) Precip ( " mm )
12:58 am 00:58 Clear 38 3.3 20 -6.8 48 48 SW 6 9 30.03 1017 10 16.0934 N/A
1:58 am 01:58 Clear 45 7 13 -10.8 27 27 W 9 15 29.99 1016 10 16.0934 N/A
2:58 am 02:58 Clear 38 3.6 17 -8.4 41 41 WSW 13 20 29.98 1015 10 16.0934 N/A
3:58 am 03:58 Partly Cloudy 40 4.2 16 -8.9 38 38 WSW 9 15 29.94 1014 10 16.0934 N/A
4:58 am 04:58 Mostly Cloudy 39 4 15 -9.5 37 37 SSW 9 15 29.9 1013 10 16.0934 N/A
5:58 am 05:58 Mostly Cloudy 41 5 16 -9.1 36 36 SW 8 13 29.85 1011 10 16.0934 N/A
6:58 am 06:58 Mostly Cloudy 41 5.1 17 -8.5 37 37 SW 7 11 29.83 1010 10 16.0934 N/A
7:58 am 07:58 Mostly Cloudy 41 5.2 17 -8.1 38 38 SW 9 15 29.8 1009 10 16.0934 N/A
8:58 am 08:58 Partly Cloudy 42 5.7 16 -8.8 35 35 WSW 5 7 29.79 1009 10 16.0934 N/A
9:58 am 09:58 Mostly Cloudy 46 7.5 13 -10.3 27 27 WNW 14 22 29.8 1009 10 16.0934 N/A
10:58 am 10:58 Mostly Clear 48 8.9 12 -11.3 23 23 WNW 14 22 29.81 1010 10 16.0934 N/A
11:58 am 11:58 Mostly Clear 41 5.1 17 -8.5 37 37 WNW 10 17 29.92 1013 10 16.0934 N/A
12:58 pm 12:58 Clear 37 2.6 20 -6.4 52 52 NW 12 19 30 1016 10 16.0934 N/A
1:58 pm 13:58 Partly Cloudy 34 1.1 22 -5.6 61 61 NNW 3 6 30.04 1017 10 16.0934 N/A
2:58 pm 14:58 Mostly Sunny 36 2 24 -4.6 62 62 SSW 3 6 30.09 1019 10 16.0934 N/A
3:58 pm 15:58 Partly Cloudy 41 5 30 -1.1 65 65 NW 14 22 30.08 1019 10 16.0934 N/A
4:58 pm 16:58 Sunny 44 6.9 31 -0.7 59 59 NNW 21 33 30.06 1018 10 16.0934 N/A
5:58 pm 17:58 Partly Cloudy 45 7.1 31 -0.8 58 58 N 22 35 30.09 1019 10 16.0934 N/A
6:58 pm 18:58 Mostly Cloudy 45 7.2 29 -1.4 55 55 N 24 39 30.08 1019 10 16.0934 N/A
7:58 pm 19:58 Partly Cloudy 46 7.8 29 -1.6 52 52 N 17 28 30.06 1018 10 16.0934 N/A
8:58 pm 20:58 Sunny 47 8.1 28 -2 49 49 N 15 24 30.05 1018 10 16.0934 N/A
9:58 pm 21:58 Mostly Sunny 46 8 28 -2.1 49 49 N 15 24 30.05 1018 10 16.0934 N/A
10:58 pm 22:58 Mostly Sunny 44 6.9 28 -2.3 52 52 N 9 15 30.07 1018 10 16.0934 N/A
11:58 pm 23:58 Clear 40 4.5 27 -2.6 60 60 N 10 17 30.12 1020 10 16.0934 N/A

Powered by AerisWeather